This is the latest recevied weather packets stored in our database for station/object VE3VGJ. If no packets are shown the sender has not sent any weather packets the latest 10 day(s).
| Time | Temp. | Humidity | Pressure | Rain* | Wind** | Luminosity | Snow |
|---|---|---|---|---|---|---|---|
| 1777942226 | 15° C | 45% | 1000.7 hPa | 0 mm | - | 0 W/m² | - |
| 1777941923 | 15° C | 46% | 1000.6 hPa | 0 mm | - | 0 W/m² | - |
| 1777941620 | 15° C | 46% | 1000.7 hPa | 0 mm | - | 0 W/m² | - |
| 1777941317 | 14.44° C | 47% | 1000.8 hPa | 0 mm | - | 0 W/m² | - |
| 1777941014 | 14.44° C | 47% | 1000.8 hPa | 0 mm | - | 1 W/m² | - |
| 1777940709 | 14.44° C | 47% | 1000.8 hPa | 0 mm | - | 1 W/m² | - |
| 1777940409 | 15° C | 47% | 1001 hPa | 0 mm | - | 2 W/m² | - |
| 1777940105 | 15° C | 45% | 1000.9 hPa | 0 mm | - | 4 W/m² | - |
| 1777939802 | 15.56° C | 44% | 1001.1 hPa | 0 mm | - | 6 W/m² | - |
| 1777939500 | 16.11° C | 43% | 1001 hPa | 0 mm | - | 9 W/m² | - |
| 1777939197 | 16.11° C | 43% | 1001 hPa | 0 mm | - | 12 W/m² | - |
| 1777938894 | 15.56° C | 44% | 1001.1 hPa | 0 mm | - | 16 W/m² | - |
| 1777938590 | 15° C | 47% | 1000.9 hPa | 0 mm | - | 20 W/m² | - |
| 1777938288 | 15° C | 48% | 1001.2 hPa | 0 mm | - | 25 W/m² | - |
| 1777937984 | 15.56° C | 48% | 1001.1 hPa | 0 mm | - | 31 W/m² | - |
| 1777937680 | 15.56° C | 47% | 1001.3 hPa | 0 mm | - | 36 W/m² | - |
| 1777937377 | 15.56° C | 48% | 1001.3 hPa | 0 mm | - | 40 W/m² | - |
| 1777937074 | 15.56° C | 48% | 1001.2 hPa | 0 mm | - | 47 W/m² | - |
| 1777936771 | 15.56° C | 48% | 1001 hPa | 0 mm | - | 63 W/m² | - |
| 1777936467 | 15.56° C | 48% | 1001 hPa | 0 mm | - | 67 W/m² | - |
| 1777936164 | 16.67° C | 47% | 1001.3 hPa | 0 mm | - | 76 W/m² | - |
| 1777935861 | 16.67° C | 46% | 1000.9 hPa | 0 mm | - | 91 W/m² | - |
| 1777935560 | 16.67° C | 47% | 1000.9 hPa | 0 mm | - | 104 W/m² | - |
| 1777935256 | 16.67° C | 46% | 1000.8 hPa | 0 mm | - | 106 W/m² | - |
| 1777934954 | 17.22° C | 45% | 1000.8 hPa | 0 mm | - | 114 W/m² | - |
* Rain latest hour (hover to see other rain measurements)
** Current wind speed in m/s (hover to see current wind gust speed)